W4SNA-3 Weather Reports


Display with metric or nautical units.
time (UTC)temp
F
wind
direction
speed
MPH
gust
MPH
rain 1hr
in
rain 24hr
in
rain mn
in
humidity
%
barometer
mb
20200407041442 57 307 7.0 12.0 0.00 0.00 0.00 76 1016.6
20200407040942 57 331 9.0 14.0 0.00 0.00 0.00 76 1016.6
20200407040442 57 337 9.0 14.0 0.00 0.00 0.00 75 1016.5
20200407035942 58 322 9.0 13.0 0.00 0.00 0.00 75 1016.4
20200407035108 58 308 7.0 11.0 0.00 0.00 0.00 74 1016.5
20200407034607 58 313 6.0 11.0 0.00 0.00 0.00 73 1016.4
20200407034110 59 300 6.0 11.0 0.00 0.00 0.00 73 1016.4
20200407033607 59 299 6.0 11.0 0.00 0.00 0.00 72 1016.5
20200407032738 59 287 5.0 12.0 0.00 0.00 0.00 72 1016.4
20200407032236 59 288 4.0 12.0 0.00 0.00 0.00 72 1016.5
20200407031735 59 299 6.0 11.0 0.00 0.00 0.00 72 1016.4
20200407031235 59 290 6.0 19.0 0.00 0.00 0.00 72 1016.3
20200407030736 59 309 5.0 20.0 0.00 0.00 0.00 72 1016.1
20200407030236 59 297 12.0 20.0 0.00 0.00 0.00 72 1016.2
20200407025736 59 293 10.0 18.0 0.00 0.00 0.00 72 1016.2
20200407025235 59 298 10.0 21.0 0.00 0.00 0.00 72 1016.1
20200407024735 59 296 11.0 21.0 0.00 0.00 0.00 73 1015.9
20200407024236 59 294 11.0 21.0 0.00 0.00 0.00 73 1016.0
20200407023736 59 293 13.0 21.0 0.00 0.00 0.00 73 1016.0
20200407023235 59 291 13.0 22.0 0.00 0.00 0.00 73 1016.0
20200407022735 58 295 14.0 25.0 0.00 0.00 0.00 73 1015.9
20200407022235 58 297 15.0 25.0 0.00 0.00 0.00 74 1016.0
20200407021735 58 295 16.0 24.0 0.00 0.00 0.00 74 1016.0
20200407020943 58 291 14.0 20.0 0.00 0.01 0.00 74 1016.2
20200407020443 58 293 12.0 20.0 0.00 0.02 0.00 74 1016.3
20200407015946 58 286 12.0 20.0 0.00 0.02 0.00 74 1016.4
20200407015446 58 289 11.0 20.0 0.00 0.02 0.00 73 1016.4
20200407014943 58 286 11.0 20.0 0.00 0.02 0.00 73 1016.3
20200407014446 58 287 11.0 19.0 0.00 0.02 0.00 73 1016.2
20200407013943 59 285 11.0 19.0 0.00 0.02 0.00 72 1016.1
20200407013446 59 286 11.0 22.0 0.00 0.02 0.00 72 1016.0
20200407012942 59 286 10.0 22.0 0.00 0.02 0.00 71 1016.0
20200407012252 59 288 10.0 17.0 0.00 0.02 0.00 71 1016.0
20200407011752 59 287 10.0 17.0 0.00 0.02 0.00 71 1015.8
20200407011252 59 287 8.0 17.0 0.00 0.02 0.00 70 1015.9
20200407010416 59 292 10.0 19.0 0.00 0.02 0.00 70 1015.8
20200407005917 59 285 10.0 18.0 0.00 0.02 0.00 69 1015.7
20200407005415 60 288 11.0 26.0 0.00 0.02 0.00 69 1015.7
20200407004916 60 282 13.0 26.0 0.00 0.02 0.00 68 1015.6
20200407004416 60 282 11.0 20.0 0.00 0.02 0.00 68 1015.6
20200407003823 60 284 9.0 18.0 0.00 0.02 0.00 67 1015.7
20200407003323 60 279 9.0 18.0 0.00 0.02 0.00 66 1015.5
20200407002823 61 286 8.0 16.0 0.00 0.02 0.00 66 1015.4
20200407002323 61 286 8.0 16.0 0.00 0.02 0.00 66 1015.4
20200407001651 61 278 10.0 19.0 0.00 0.02 0.00 64 1015.5
20200407001150 62 281 6.0 14.0 0.00 0.02 0.00 63 1015.5
20200407000650 62 282 8.0 17.0 0.00 0.02 0.00 63 1015.4
20200407000151 62 286 7.0 22.0 0.00 0.02 0.00 63 1015.5
20200406235651 62 286 12.0 26.0 0.00 0.02 0.00 63 1015.4
20200406235152 63 282 13.0 26.0 0.00 0.02 0.00 63 1015.4
20200406234653 63 280 8.0 18.0 0.00 0.02 0.00 62 1015.3
20200406234151 63 280 8.0 27.0 0.00 0.02 0.00 62 1015.3
20200406233650 64 278 12.0 27.0 0.00 0.02 0.00 61 1015.3
20200406233150 64 276 9.0 16.0 0.00 0.02 0.00 60 1015.4
20200406232651 64 284 8.0 13.0 0.00 0.02 0.00 59 1015.3
20200406232150 65 284 7.0 11.0 0.00 0.02 0.00 58 1015.3
20200406231532 65 291 12.0 19.0 0.00 0.02 0.00 59 1015.2
20200406231030 65 290 7.0 15.0 0.00 0.02 0.00 59 1015.2
20200406230534 66 268 8.0 15.0 0.00 0.02 0.00 57 1015.1
20200406230030 66 267 8.0 15.0 0.00 0.02 0.00 58 1015.1
20200406225530 66 260 3.0 15.0 0.00 0.02 0.00 56 1015.2
20200406225030 66 270 6.0 17.0 0.00 0.02 0.00 56 1015.2
20200406224530 66 278 5.0 19.0 0.00 0.02 0.00 55 1015.1
20200406224030 67 273 10.0 19.0 0.00 0.02 0.00 55 1015.0
20200406223219 67 267 4.0 18.0 0.00 0.02 0.00 53 1015.2
20200406222719 67 273 6.0 18.0 0.00 0.02 0.00 53 1015.1
20200406222219 67 274 9.0 18.0 0.00 0.02 0.00 54 1015.1
20200406221722 67 274 4.0 16.0 0.00 0.02 0.00 53 1015.2
20200406221221 68 279 8.0 16.0 0.00 0.03 0.00 52 1015.1
20200406220719 68 318 8.0 17.0 0.00 0.06 0.00 52 1015.1
20200406220219 68 301 10.0 18.0 0.00 0.06 0.00 51 1015.2
20200406215719 68 298 13.0 19.0 0.00 0.06 0.00 51 1015.2
20200406215219 68 289 13.0 19.0 0.00 0.06 0.00 52 1015.1
20200406214557 68 307 7.0 13.0 0.00 0.06 0.00 55 1015.4
20200406214100 69 247 5.0 12.0 0.00 0.06 0.00 55 1015.5
20200406213557 69 264 3.0 16.0 0.00 0.06 0.00 54 1015.4
20200406213057 69 252 7.0 17.0 0.00 0.06 0.00 54 1015.4
20200406212558 69 283 2.0 17.0 0.00 0.06 0.00 55 1015.4
20200406212057 69 273 6.0 20.0 0.00 0.06 0.00 56 1015.5
20200406211557 69 264 10.0 20.0 0.00 0.06 0.00 53 1015.6
20200406211057 69 275 9.0 17.0 0.00 0.06 0.00 55 1015.7
20200406210557 69 295 10.0 18.0 0.00 0.06 0.00 53 1015.6
20200406210057 69 270 8.0 18.0 0.00 0.06 0.00 54 1015.5
20200406205557 69 277 5.0 16.0 0.00 0.06 0.00 54 1015.4
20200406205000 69 289 8.0 18.0 0.00 0.06 0.00 53 1015.5
20200406204501 69 281 8.0 15.0 0.00 0.06 0.00 54 1015.5
20200406204000 69 284 9.0 20.0 0.00 0.06 0.00 53 1015.6
20200406203505 69 292 12.0 22.0 0.00 0.06 0.00 53 1015.6
20200406203000 69 295 11.0 22.0 0.00 0.06 0.00 51 1015.6
20200406202501 70 290 10.0 28.0 0.00 0.06 0.00 50 1015.5
20200406202000 71 301 12.0 28.0 0.00 0.06 0.00 48 1015.7
20200406201503 71 295 16.0 27.0 0.00 0.06 0.00 47 1015.5
20200406201000 71 298 15.0 27.0 0.00 0.06 0.00 48 1015.5
20200406200500 71 275 15.0 27.0 0.00 0.06 0.00 46 1015.6
20200406200000 72 290 16.0 27.0 0.00 0.06 0.00 47 1015.6
20200406195506 72 291 15.0 27.0 0.00 0.06 0.00 46 1015.6
20200406195000 72 300 13.0 25.0 0.00 0.06 0.00 52 1015.8
20200406194500 72 277 11.0 25.0 0.00 0.06 0.00 54 1016.0
20200406194000 72 301 12.0 25.0 0.00 0.06 0.00 54 1015.9
20200406193504 72 284 14.0 25.0 0.00 0.06 0.00 53 1015.8
20200406193000 71 279 11.0 27.0 0.00 0.06 0.00 52 1015.9
20200406192500 71 284 12.0 27.0 0.00 0.06 0.00 51 1016.0
20200406192002 71 301 12.0 26.0 0.00 0.06 0.00 52 1016.1
20200406191500 71 288 10.0 26.0 0.00 0.06 0.00 53 1016.1
20200406191000 71 305 12.0 23.0 0.00 0.06 0.00 53 1016.3
20200406190500 71 288 10.0 23.0 0.00 0.06 0.00 52 1016.3
20200406190000 71 300 11.0 23.0 0.00 0.06 0.00 53 1016.5
20200406185503 70 310 5.0 19.0 0.00 0.06 0.00 58 1016.4
20200406185000 70 321 12.0 19.0 0.00 0.06 0.00 55 1016.5
20200406184500 69 320 12.0 19.0 0.00 0.06 0.00 58 1016.7
20200406183854 68 313 9.0 18.0 0.00 0.06 0.00 57 1016.8
20200406183354 67 294 8.0 18.0 0.00 0.06 0.00 58 1017.0
20200406182854 66 297 9.0 20.0 0.00 0.06 0.00 61 1016.9
20200406182354 66 287 11.0 20.0 0.00 0.06 0.00 59 1017.0
20200406181629 68 290 13.0 31.0 0.00 0.06 0.00 58 1016.9
20200406181129 69 304 10.0 23.0 0.00 0.06 0.00 60 1017.0
20200406180629 70 291 13.0 23.0 0.00 0.06 0.00 53 1017.2
20200406180129 70 301 11.0 20.0 0.00 0.06 0.00 53 1017.3
20200406175629 71 319 13.0 20.0 0.00 0.06 0.00 53 1017.3
20200406174923 71 291 10.0 17.0 0.00 0.06 0.00 55 1017.0
20200406174421 70 297 9.0 15.0 0.00 0.06 0.00 56 1017.3
20200406173708 69 336 11.0 19.0 0.00 0.06 0.00 55 1017.4
20200406173208 68 320 5.0 19.0 0.00 0.06 0.00 59 1017.4
20200406172709 68 301 11.0 19.0 0.00 0.06 0.00 60 1017.4
20200406172208 67 294 6.0 17.0 0.00 0.06 0.00 65 1017.5
20200406171708 67 297 10.0 17.0 0.00 0.06 0.00 67 1017.7
20200406171210 67 327 8.0 15.0 0.00 0.06 0.00 63 1017.8
20200406170708 68 306 7.0 15.0 0.00 0.06 0.00 57 1017.9
20200406170208 68 312 8.0 14.0 0.00 0.06 0.00 58 1018.1
20200406165710 69 308 6.0 11.0 0.00 0.06 0.00 57 1018.1
20200406165208 69 349 4.0 15.0 0.00 0.06 0.00 56 1018.1
20200406164708 70 296 9.0 19.0 0.00 0.06 0.00 55 1018.3
20200406164209 71 321 9.0 19.0 0.00 0.06 0.00 54 1018.3
20200406163708 72 287 7.0 18.0 0.00 0.06 0.00 51 1018.4
20200406163208 72 292 6.0 18.0 0.00 0.06 0.00 52 1018.3
20200406162441 72 275 10.0 20.0 0.00 0.06 0.00 55 1018.3
20200406161940 72 307 12.0 20.0 0.00 0.06 0.00 54 1018.2
20200406161442 72 309 11.0 18.0 0.00 0.06 0.00 54 1018.2
20200406160940 72 300 11.0 18.0 0.00 0.06 0.00 54 1018.3
20200406160441 72 275 11.0 20.0 0.00 0.06 0.00 56 1018.4
20200406155940 72 300 9.0 21.0 0.00 0.06 0.00 54 1018.3
20200406155440 71 303 10.0 21.0 0.00 0.06 0.00 52 1018.4
20200406154940 71 312 7.0 19.0 0.00 0.06 0.00 55 1018.5
20200406154440 71 325 8.0 20.0 0.00 0.06 0.00 56 1018.6
20200406153940 71 301 12.0 20.0 0.00 0.06 0.00 55 1018.4
20200406153440 71 278 9.0 23.0 0.00 0.06 0.00 53 1018.5
20200406152940 71 294 15.0 24.0 0.00 0.06 0.00 56 1018.3
20200406152440 71 310 15.0 24.0 0.00 0.06 0.00 55 1018.5
20200406151940 70 303 15.0 26.0 0.00 0.06 0.00 56 1018.6
20200406151440 70 308 15.0 26.0 0.00 0.06 0.00 57 1018.6
20200406150940 70 303 15.0 21.0 0.00 0.06 0.00 56 1018.8
20200406150440 70 331 10.0 19.0 0.00 0.06 0.00 56 1018.7
20200406145847 69 313 11.0 18.0 0.00 0.06 0.00 57 1018.9
20200406145348 69 305 9.0 21.0 0.00 0.06 0.00 56 1018.9
20200406144848 69 295 12.0 23.0 0.00 0.06 0.00 58 1018.8
20200406144349 69 291 12.0 23.0 0.00 0.06 0.00 58 1018.8
20200406143848 69 292 11.0 18.0 0.00 0.06 0.00 59 1018.6
20200406143347 68 315 12.0 18.0 0.00 0.06 0.00 58 1018.6
20200406142850 68 295 6.0 15.0 0.00 0.06 0.00 61 1018.6
20200406142347 68 296 8.0 15.0 0.00 0.06 0.00 61 1018.6
20200406141848 67 298 9.0 18.0 0.00 0.06 0.00 63 1018.6
20200406141347 67 299 10.0 18.0 0.00 0.06 0.00 63 1018.7
20200406140848 66 297 9.0 19.0 0.00 0.06 0.00 62 1017.8
20200406140347 66 334 10.0 19.0 0.00 0.06 0.00 65 1017.9
20200406135847 66 325 9.0 18.0 0.00 0.06 0.00 64 1018.0
20200406135347 65 304 12.0 19.0 0.00 0.06 0.00 66 1018.0
20200406134847 65 295 12.0 19.0 0.00 0.06 0.00 65 1018.0
20200406134347 64 302 10.0 18.0 0.00 0.06 0.00 66 1018.0
20200406133848 63 322 12.0 20.0 0.00 0.06 0.00 67 1018.0
20200406133347 63 312 12.0 20.0 0.00 0.06 0.00 68 1018.0
20200406132848 62 302 14.0 20.0 0.00 0.06 0.00 68 1018.0
20200406132347 62 307 14.0 20.0 0.00 0.06 0.00 69 1018.1
20200406131847 61 314 11.0 20.0 0.00 0.06 0.00 70 1018.0
20200406131347 61 313 11.0 20.0 0.00 0.06 0.00 70 1018.0
20200406130852 60 315 12.0 20.0 0.00 0.06 0.00 70 1017.9
20200406130347 60 308 13.0 20.0 0.00 0.06 0.00 72 1018.0
20200406125553 59 318 12.0 18.0 0.00 0.06 0.00 74 1018.0
20200406125058 58 304 11.0 17.0 0.00 0.06 0.00 75 1018.1
20200406124552 57 301 12.0 18.0 0.00 0.06 0.00 76 1018.0
20200406124053 56 314 12.0 18.0 0.00 0.06 0.00 77 1018.0
20200406123555 55 307 11.0 16.0 0.00 0.06 0.00 77 1017.9
20200406122720 54 303 11.0 16.0 0.00 0.06 0.00 80 1017.9
20200406122219 53 315 11.0 14.0 0.00 0.06 0.00 81 1017.8
20200406121718 52 309 10.0 14.0 0.00 0.06 0.00 81 1017.8
20200406121218 52 313 10.0 14.0 0.00 0.06 0.00 81 1017.8
20200406115955 51 312 10.0 15.0 0.00 0.06 0.00 81 1017.7
20200406115455 51 310 10.0 15.0 0.00 0.06 0.00 81 1017.7
20200406114927 51 314 11.0 16.0 0.00 0.06 0.00 81 1017.6
20200406114423 51 315 10.0 16.0 0.00 0.06 0.00 81 1017.5
20200406113923 50 322 12.0 29.0 0.00 0.06 0.00 81 1017.6
20200406113423 50 321 11.0 29.0 0.00 0.06 0.00 81 1017.5
20200406112923 50 319 21.0 28.0 0.00 0.06 0.00 81 1017.5
20200406112423 50 324 12.0 19.0 0.00 0.06 0.00 81 1017.3
20200406111923 50 323 11.0 24.0 0.00 0.06 0.00 81 1017.2
20200406111423 50 324 12.0 24.0 0.00 0.06 0.00 81 1017.2
20200406110927 50 322 10.0 14.0 0.00 0.06 0.00 81 1017.0
20200406110423 50 322 10.0 14.0 0.00 0.06 0.00 81 1017.0
20200406105923 50 326 10.0 14.0 0.00 0.06 0.00 81 1017.1
20200406105424 50 327 9.0 15.0 0.00 0.06 0.00 81 1017.1
20200406104925 51 318 10.0 15.0 0.00 0.06 0.00 81 1016.9
20200406104430 51 324 10.0 16.0 0.00 0.06 0.00 81 1016.9
20200406103924 51 314 11.0 16.0 0.00 0.06 0.00 81 1016.8
20200406103423 51 326 11.0 17.0 0.00 0.06 0.00 80 1016.7
20200406102924 51 318 11.0 21.0 0.00 0.06 0.00 81 1016.8
20200406102424 51 331 13.0 21.0 0.00 0.06 0.00 81 1016.7
20200406101446 51 313 12.0 24.0 0.00 0.06 0.00 81 1016.6
20200406100949 50 323 15.0 24.0 0.00 0.06 0.00 81 1016.4
20200406100447 50 323 13.0 26.0 0.00 0.06 0.00 82 1016.5
20200406095946 50 327 13.0 27.0 0.00 0.06 0.00 82 1016.4
20200406095447 50 320 19.0 27.0 0.00 0.06 0.00 81 1016.5
20200406094946 50 336 16.0 26.0 0.00 0.06 0.00 81 1016.6
20200406094446 50 314 17.0 24.0 0.00 0.06 0.00 81 1016.5
20200406093946 50 311 16.0 24.0 0.00 0.06 0.00 81 1016.7
20200406093446 50 334 15.0 24.0 0.00 0.06 0.00 81 1016.7
20200406092946 50 314 16.0 20.0 0.00 0.06 0.00 81 1016.6
20200406092448 50 308 14.0 18.0 0.00 0.06 0.00 81 1016.7
20200406091448 50 310 12.0 18.0 0.00 0.06 0.00 81 1016.8
20200406090948 50 301 9.0 16.0 0.00 0.06 0.00 81 1016.8
20200406090446 50 290 11.0 16.0 0.00 0.06 0.00 81 1016.8
20200406085935 50 289 8.0 12.0 0.00 0.06 0.00 81 1016.9
20200406085437 50 282 7.0 12.0 0.00 0.06 0.00 81 1016.9
20200406084737 51 282 8.0 12.0 0.00 0.06 0.00 81 1016.8
20200406084236 51 278 9.0 12.0 0.00 0.06 0.00 81 1016.8
20200406083738 51 277 6.0 10.0 0.00 0.06 0.00 81 1016.8
20200406082411 51 309 4.0 12.0 0.00 0.06 0.00 81 1016.7
20200406081555 51 313 8.0 13.0 0.00 0.06 0.00 81 1016.6
20200406081055 51 308 8.0 13.0 0.00 0.06 0.00 81 1016.5
20200406080320 51 307 9.0 17.0 0.00 0.06 0.00 81 1016.4
20200406075821 51 302 11.0 17.0 0.00 0.06 0.00 81 1016.4
20200406075008 51 301 10.0 15.0 0.00 0.06 0.00 81 1016.4
20200406074508 51 302 10.0 16.0 0.00 0.06 0.00 81 1016.5
20200406074014 51 300 11.0 16.0 0.00 0.06 0.00 81 1016.5
20200406073508 52 298 9.0 14.0 0.00 0.06 0.00 80 1016.5
20200406073007 52 296 10.0 14.0 0.00 0.06 0.00 80 1016.6
20200406072709 52 302 9.0 14.0 0.00 0.06 0.00 80 1016.6
20200406072508 52 302 9.0 14.0 0.00 0.06 0.00 80 1016.6
20200406071459 52 292 10.0 20.0 0.00 0.06 0.00 80 1016.6
20200406071000 52 288 15.0 20.0 0.00 0.06 0.00 79 1016.5
20200406070222 52 286 7.0 20.0 0.00 0.06 0.00 79 1016.6
20200406065722 53 286 10.0 20.0 0.00 0.06 0.00 79 1016.7
20200406065222 53 290 7.0 11.0 0.00 0.06 0.00 79 1016.7
20200406064724 53 290 7.0 11.0 0.00 0.06 0.00 78 1016.8
20200406064222 53 278 7.0 11.0 0.00 0.06 0.00 78 1016.9
20200406063724 54 283 5.0 13.0 0.00 0.06 0.00 78 1016.9
20200406063222 54 272 5.0 14.0 0.00 0.06 0.00 78 1017.0
20200406062722 54 278 7.0 14.0 0.00 0.06 0.00 77 1017.0
20200406062222 54 275 7.0 14.0 0.00 0.06 0.00 77 1017.1
20200406061724 54 269 5.0 14.0 0.00 0.06 0.00 77 1017.1
20200406060639 54 272 8.0 18.0 0.00 0.06 0.00 76 1017.1
20200406060411 54 273 5.0 17.0 0.00 0.06 0.00 77 1017.2
20200406055640 54 265 10.0 16.0 0.00 0.06 0.00 77 1017.1
20200406054911 54 265 8.0 21.0 0.00 0.06 0.00 77 1017.2
20200406054411 54 258 11.0 20.0 0.00 0.06 0.00 78 1017.3
20200406053915 54 252 11.0 20.0 0.00 0.06 0.00 78 1017.3
20200406053413 54 248 12.0 22.0 0.00 0.06 0.00 78 1017.4
20200406052916 53 251 13.0 22.0 0.00 0.06 0.00 79 1017.5
20200406052218 54 255 14.0 24.0 0.00 0.06 0.00 79 1017.5
20200406051717 54 260 13.0 24.0 0.00 0.06 0.00 80 1017.6
20200406051216 54 260 15.0 24.0 0.00 0.06 0.00 79 1017.4
20200406050718 54 258 12.0 20.0 0.00 0.06 0.00 79 1017.5
20200406050216 55 255 10.0 16.0 0.00 0.06 0.00 79 1017.5
20200406045716 55 245 6.0 18.0 0.00 0.06 0.00 79 1017.5
20200406045217 55 249 6.0 18.0 0.00 0.06 0.00 79 1017.5
20200406044719 55 239 7.0 15.0 0.00 0.06 0.00 79 1017.5
20200406044216 55 238 7.0 15.0 0.00 0.06 0.00 78 1017.5
20200406043719 55 236 8.0 16.0 0.00 0.06 0.00 78 1017.5
20200406043216 55 236 5.0 16.0 0.00 0.06 0.00 78 1017.5
20200406042716 55 239 5.0 15.0 0.00 0.06 0.00 78 1017.6
20200406042216 55 231 6.0 15.0 0.00 0.06 0.00 78 1017.7
20200406041718 55 224 6.0 20.0 0.00 0.06 0.00 78 1017.5